SCP
0 0 1 1 1 1 1 2 2 2 1 1 1 0 0 0 0 0 0 0 0 0 0 -0 -0 -0 -0 -0 -0 -0 -0 -0 0 0 0 0 0 0 0 0 0 0 0
0 0 0 1 1 1 1 2 2 2 2 1 1 1 0 0 0 0 0 0 0 0 0 0 -0 -0 -0 -0 -0 -0 -0 -0 -0 -0 0 0 0 0 0 0 0 0 0
0 0 0 0 1 1 1 2 2 3 2 1 1 1 1 0 0 0 0 0 0 0 0 0 0 0 -0 -0 -0 -0 -0 -0 -0 -0 -0 0 0 0 0 0 0 0 0
0 0 0 0 0 1 2 2 2 2 2 1 1 1 1 1 0 0 0 0 0 0 0 0 0 0 0 -0 -0 -0 -0 -0 -0 -0 -0 -0 -0 0 0 0 0 0 0
0 0 0 0 0 0 1 2 1 2 1 1 1 1 1 1 1 0 0 0 0 0 0 0 0 0 0 0 -0 -0 -0 -0 -0 -0 -0 -0 -0 -0 0 0 0 0 0
0 0 0 0 0 0 0 2 1 1 2 2 1 1 1 1 1 1 0 1 0 0 0 0 0 0 0 0 0 -0 -0 -0 -0 -0 -0 -0 -0 -0 -0 0 0 0 0
0 0 0 0 0 0 0 0 2 0 1 1 1 1 1 1 1 1 1 1 1 0 0 0 0 0 0 0 0 -0 -0 -0 -0 -0 -0 -0 -0 -0 -0 -0 -0 0 0
0 0 0 0 0 0 0 0 1 1 1 2 2 2 1 0 0 0 1 1 1 0 0 0 0 0 0 0 0 0 -0 -0 -0 -0 -0 -0 -0 -0 -0 -0 -0 -0 0
0 0 0 0 0 0 0 0 0 0 0 0 1 3 1 0 1 0 0 1 1 1 0 0 0 0 0 0 0 0 0 0 0 -0 -0 -0 -0 -0 -0 -0 -0 -0 -0
0 0 0 0 0 0 0 0 0 0 0 0 0 2 2 1 1 1 0 1 1 1 1 0 0 0 0 0 0 0 0 0 0 0 0 -0 -0 -0 -0 -0 -0 -0 -0
0 0 0 0 0 0 0 0 0 0 0 0 0 1 2 1 1 1 0 1 1 1 1 0 0 0 0 0 0 0 0 0 0 0 0 0 -0 -0 -0 -0 -0 0 -0
0 0 0 0 0 0 0 0 0 1 1 0 0 1 1 1 1 1 1 1 1 1 1 1 0 0 0 0 0 0 0 0 0 0 0 0 0 0 0 -0 -0 -0 0
0 0 0 0 0 0 0 0 0 0 1 1 0 0 0 1 1 1 1 1 1 1 0 1 0 0 0 0 0 0 0 0 0 0 0 0 0 0 0 0 -0 -0 -0
0 0 0 0 0 0 0 0 0 0 1 0 0 0 0 1 1 1 1 1 1 1 0 0 0 0 0 0 0 0 0 0 0 0 0 0 0 0 0 0 0 0 0
0 0 0 0 0 0 0 0 0 0 1 0 0 0 0 0 0 0 1 1 1 1 0 0 0 0 0 0 0 0 0 0 0 0 0 0 0 0 0 0 0 0 0
0 0 0 0 0 0 0 0 0 0 1 0 0 0 0 0 0 0 0 1 1 1 0 0 0 0 0 0 0 0 0 0 0 0 0 0 0 0 0 0 0 0 0
0 0 0 0 0 0 0 0 0 0 0 0 0 0 0 0 0 0 0 0 0 1 1 1 0 0 0 0 0 0 0 0 0 0 0 0 0 0 0 0 0 0 0
0 -0 -0 -0 0 0 0 0 0 0 0 0 0 0 0 0 0 0 0 0 0 0 0 1 0 0 0 0 0 0 0 0 0 0 0 0 0 0 0 0 0 0 0
-0 -0 -0 -0 -0 0 0 0 0 0 0 0 0 0 0 0 0 0 0 0 0 0 0 0 0 0 0 0 0 0 0 0 0 0 0 0 0 0 0 0 0 0 0
-0 -0 -0 -0 -0 -0 -0 0 0 0 0 0 0 0 0 0 0 0 0 0 0 0 0 0 0 0 0 0 0 0 0 0 0 0 0 0 0 0 0 0 0 0 0
-0 -0 -0 -0 -0 -0 -0 -0 0 0 0 0 0 0 0 0 0 0 0 0 0 0 0 0 0 0 0 0 0 0 0 0 0 0 0 0 0 0 0 0 0 0 0
-0 -0 -0 -0 -0 -0 -0 -0 -0 0 0 0 0 0 0 0 0 0 0 0 0 0 0 0 0 0 0 0 0 0 0 0 0 0 0 0 0 0 0 0 0 0 0
-0 -0 -0 -0 -0 0 -0 -0 -0 0 -0 0 0 0 0 0 0 0 0 0 0 0 0 0 0 0 0 0 0 0 0 0 0 0 0 0 0 0 0 0 0 0 0
0 -0 -0 -0 -0 -0 -0 -0 -0 -0 0 0 0 0 0 0 0 0 0 0 0 0 0 0 0 0 0 0 0 0 0 0 0 0 0 0 0 0 0 0 0 0 0
0 0 -0 0 0 -0 -0 -0 -0 -0 -0 -0 -0 -0 0 0 -0 -0 0 0 0 0 0 0 0 0 0 0 0 0 0 0 0 0 0 0 0 0 0 0 0 0 0
0 0 -0 -0 -0 -0 -0 -0 -0 -0 -0 -0 -0 -0 -0 -0 -0 -0 0 0 0 0 0 0 0 0 0 0 0 0 0 0 0 0 0 0 0 0 0 0 0 0 0
Wind_Speed_500mb
51 52 45 47 56 62 65 72 70 68 64 61 59 59 55 51 47 45 42 40 36 35 35 37 38 42 44 43 42 43 46 44 37 36 36 37 38 38 37 36 36 33 31
64 63 60 55 52 61 68 74 79 75 73 67 64 64 61 57 52 49 45 44 39 40 39 39 39 40 42 43 45 47 52 41 42 38 37 37 38 37 37 36 36 35 37
70 73 72 70 67 61 68 75 82 84 81 75 70 68 66 62 57 53 49 47 41 40 42 41 38 38 41 43 45 44 49 46 47 41 38 35 37 38 37 37 39 42 42
69 74 80 81 76 67 70 69 82 90 89 82 78 75 71 67 62 58 55 49 45 42 41 40 41 41 43 44 44 45 43 49 47 45 41 37 35 36 38 39 39 42 48
64 71 78 86 88 81 70 76 73 93 89 90 83 80 76 73 68 63 62 56 50 43 40 38 41 42 43 44 43 47 49 51 50 48 44 40 37 34 37 40 43 40 40
57 61 73 84 91 88 79 70 80 81 97 93 87 83 80 76 71 68 66 60 53 47 37 36 38 45 45 45 41 48 51 49 52 53 48 45 42 39 39 38 31 38 47
60 53 65 74 82 84 82 65 84 80 103 93 83 76 83 82 75 74 70 66 62 54 43 42 42 43 47 46 43 45 49 48 52 52 50 51 47 46 43 38 34 30 40
57 55 58 69 65 69 78 73 78 78 79 90 92 66 48 65 81 84 78 74 69 62 53 52 51 47 45 50 49 48 50 47 51 51 50 53 51 49 48 43 37 33 29
53 53 56 63 65 65 79 83 63 78 89 85 116 60 39 37 61 71 91 86 79 75 68 62 60 54 53 48 46 47 51 50 50 51 49 49 47 51 51 49 44 40 36
51 49 51 58 69 62 65 68 67 76 80 106 93 93 55 43 44 35 66 93 84 84 77 71 69 63 57 53 49 48 49 51 52 51 52 51 49 48 52 51 50 47 43
46 46 48 52 56 59 67 67 65 64 64 97 92 64 89 73 56 48 39 72 93 91 85 78 72 69 62 59 56 53 49 49 51 50 53 54 54 51 52 51 50 49 48
59 46 41 44 51 47 59 65 68 64 68 72 100 79 105 84 75 64 49 54 98 95 93 88 84 76 74 69 65 57 51 52 53 54 53 54 55 56 55 56 59 58 55
63 52 43 43 45 38 53 55 63 68 59 69 91 85 74 94 84 79 64 41 48 59 79 95 90 81 77 74 70 62 57 53 55 56 57 57 57 56 57 59 60 61 61
56 52 47 46 41 35 49 58 54 59 61 68 89 75 85 70 89 90 86 66 40 47 67 79 89 86 82 81 75 66 62 57 55 56 56 58 59 59 60 58 62 64 64
46 44 43 32 22 31 47 53 51 40 55 43 68 86 90 82 62 82 98 86 72 42 54 66 63 71 83 83 78 71 67 63 59 56 58 59 58 59 58 60 60 61 65
40 34 28 20 15 28 42 50 48 43 42 40 48 86 95 64 76 72 89 90 90 75 58 69 70 53 47 50 59 64 68 64 60 59 59 63 66 63 61 60 60 62 64
47 36 27 14 9 8 28 42 47 47 40 44 61 80 86 100 85 56 90 83 89 86 70 59 54 56 54 53 52 52 56 66 67 62 59 66 72 73 68 65 62 61 63
64 56 45 27 26 6 6 6 19 36 39 47 51 62 66 68 68 71 68 73 73 82 82 76 70 64 60 57 57 58 60 60 63 62 57 59 63 76 75 68 67 66 65
81 75 80 70 52 36 25 26 24 22 22 27 40 41 53 62 67 54 36 53 60 67 73 75 65 66 61 60 59 59 60 60 60 55 50 51 48 50 55 57 58 62 69
93 93 86 93 86 78 65 55 53 52 56 57 51 26 20 23 30 39 59 46 54 61 64 62 60 55 50 52 58 56 56 65 69 71 58 57 57 56 63 62 61 63 64
84 90 88 86 93 96 87 81 74 76 78 74 71 71 61 55 34 17 19 22 45 57 65 62 38 48 44 43 47 46 56 63 62 64 62 61 60 63 61 57 58 58 66
70 74 85 87 86 87 80 74 73 79 77 76 71 77 73 68 60 53 48 40 32 23 16 16 31 22 20 25 13 14 31 42 53 51 51 59 62 58 59 61 58 60 60
79 81 82 88 89 85 76 69 69 68 72 73 76 72 83 67 61 53 47 40 37 33 38 35 32 27 17 15 4 6 11 13 23 38 35 37 38 40 44 51 55 56 59
78 78 79 79 79 79 74 74 72 74 72 72 71 71 69 66 61 49 46 41 37 32 30 28 27 28 25 20 17 11 18 16 18 24 28 32 33 33 37 40 49 54 56
73 79 78 78 77 76 75 73 72 72 72 70 70 71 69 64 52 41 35 39 34 36 33 28 25 21 18 14 13 12 12 17 9 20 22 27 33 40 36 37 40 49 54
65 69 74 77 78 80 80 78 75 72 71 71 67 66 66 59 56 51 47 41 37 38 26 20 15 14 15 18 17 17 17 15 17 10 13 21 17 23 14 25 28 30 35
Wind_Direction_500mb
279 276 267 261 265 254 247 244 240 237 237 238 237 235 234 234 230 227 225 225 228 229 221 217 216 217 215 214 213 208 202 196 208 205 204 206 208 211 216 221 224 221 217
272 268 266 263 252 264 252 246 243 239 238 237 238 236 234 234 231 229 225 222 224 224 221 220 221 221 217 218 217 213 210 215 202 210 209 210 213 216 219 223 222 212 217
267 263 259 258 256 250 263 250 246 240 236 236 236 237 235 234 232 228 224 219 220 218 220 222 223 220 218 219 219 220 221 209 206 213 213 214 216 220 223 228 215 208 214
271 260 256 252 251 249 248 254 249 243 237 233 233 234 234 233 232 228 224 220 218 218 219 222 223 220 217 217 217 219 219 207 213 215 217 215 220 223 223 227 233 219 212
277 265 255 248 246 243 244 251 249 239 236 235 232 234 233 232 231 228 224 220 219 220 224 225 224 223 219 216 219 217 213 211 217 220 221 221 221 228 227 230 236 234 229
284 267 257 249 243 241 238 245 244 240 234 238 232 233 234 231 230 227 223 221 216 216 222 223 223 222 220 218 221 217 216 217 218 222 226 228 230 232 228 228 233 241 236
286 273 259 255 246 242 235 235 241 242 235 226 230 228 232 231 229 225 222 222 219 215 224 230 228 224 221 218 220 218 218 223 223 224 229 232 233 234 231 228 231 238 236
292 279 263 255 247 245 238 230 236 235 241 230 220 219 219 225 227 224 222 224 224 220 217 230 233 231 223 221 219 219 220 225 225 229 234 236 236 235 233 233 237 238 237
307 289 273 253 248 245 240 230 245 231 245 230 218 208 208 217 221 226 222 225 225 227 224 221 230 233 226 225 223 223 225 227 225 228 232 237 236 235 235 237 238 239 239
315 309 289 271 251 240 239 233 231 239 247 231 241 213 217 214 206 209 220 224 222 227 228 226 225 229 226 225 226 229 229 229 229 230 231 234 238 238 235 237 240 241 240
315 308 299 288 268 258 236 228 227 237 239 224 221 231 222 218 213 217 215 214 221 225 225 227 226 227 228 228 231 233 233 232 232 232 234 234 235 236 235 234 238 240 242
317 312 296 286 282 267 231 220 230 228 233 227 218 227 222 218 216 212 216 213 218 221 223 226 227 228 230 233 234 236 236 236 236 236 235 234 234 237 236 234 235 238 241
319 314 299 280 271 268 221 216 230 230 225 231 229 223 236 231 227 219 218 208 212 212 225 228 229 230 233 233 236 237 237 235 236 237 239 239 238 239 240 239 237 240 239
324 316 309 299 263 247 229 218 228 231 232 235 233 246 217 230 235 227 218 217 209 210 222 229 232 232 233 236 236 236 240 236 233 234 235 238 239 239 238 240 238 239 242
338 328 315 298 275 236 228 220 227 229 228 245 239 233 228 238 234 235 234 226 219 207 217 227 233 235 236 238 237 237 236 236 234 236 236 236 238 239 238 237 237 237 242
360 343 327 307 261 247 238 222 215 217 233 234 240 231 229 236 232 243 244 234 229 226 226 238 233 233 231 231 232 234 235 235 234 238 240 240 238 239 240 241 241 240 238
32 26 15 359 8 268 252 238 225 226 240 235 231 230 237 231 241 258 231 239 237 232 229 236 231 229 235 239 238 237 242 244 241 236 241 244 242 239 238 240 242 243 243
47 51 47 44 54 42 58 211 214 226 229 228 231 233 232 226 227 235 247 248 242 240 235 233 234 231 233 239 250 252 253 244 237 234 247 256 248 240 239 238 243 244 248
47 54 60 59 62 72 82 93 118 143 167 208 220 212 219 220 221 234 224 221 240 242 237 236 238 241 243 249 248 248 248 239 233 246 256 247 241 232 230 234 240 243 247
61 55 51 62 66 73 79 87 99 102 101 97 97 142 178 177 184 197 222 229 238 237 243 235 232 242 241 236 237 237 233 235 244 249 251 245 239 239 242 247 248 246 248
54 61 59 53 64 67 68 75 80 84 86 82 81 84 91 92 106 144 183 190 225 251 243 234 229 225 217 215 219 233 231 233 244 249 247 242 241 236 240 247 251 251 252
60 57 60 60 54 58 64 66 69 70 68 69 65 75 80 78 75 73 76 86 103 89 164 188 196 163 189 231 233 242 240 235 243 241 237 234 235 240 247 249 252 249 255
50 56 57 56 58 59 56 56 60 62 64 63 58 54 64 65 67 72 72 67 68 68 72 71 73 76 77 83 209 275 293 237 245 251 273 244 241 239 244 252 259 265 265
51 51 54 57 59 58 57 59 61 61 61 57 56 49 50 50 51 56 61 66 70 72 65 51 48 42 36 31 22 328 332 325 302 288 289 284 269 262 266 265 267 265 265
48 49 50 52 52 51 50 49 50 52 54 53 50 50 49 46 46 50 56 60 58 60 52 49 42 34 21 15 354 334 333 349 333 282 281 280 283 285 281 273 268 265 263
51 51 50 49 49 46 43 43 44 48 48 47 45 43 42 36 34 37 41 48 50 56 56 59 44 26 15 1 346 350 9 4 345 315 298 332 316 310 291 267 260 265 271
Wind_Speed_850mb
51 52 45 47 56 62 65 72 70 68 64 61 59 59 55 51 47 45 42 40 36 35 35 37 38 42 44 43 42 43 46 44 37 36 36 37 38 38 37 36 36 33 31
64 63 60 55 52 61 68 74 79 75 73 67 64 64 61 57 52 49 45 44 39 40 39 39 39 40 42 43 45 47 52 41 42 38 37 37 38 37 37 36 36 35 37
70 73 72 70 67 61 68 75 82 84 81 75 70 68 66 62 57 53 49 47 41 40 42 41 38 38 41 43 45 44 49 46 47 41 38 35 37 38 37 37 39 42 42
69 74 80 81 76 67 70 69 82 90 89 82 78 75 71 67 62 58 55 49 45 42 41 40 41 41 43 44 44 45 43 49 47 45 41 37 35 36 38 39 39 42 48
64 71 78 86 88 81 70 76 73 93 89 90 83 80 76 73 68 63 62 56 50 43 40 38 41 42 43 44 43 47 49 51 50 48 44 40 37 34 37 40 43 40 40
57 61 73 84 91 88 79 70 80 81 97 93 87 83 80 76 71 68 66 60 53 47 37 36 38 45 45 45 41 48 51 49 52 53 48 45 42 39 39 38 31 38 47
60 53 65 74 82 84 82 65 84 80 103 93 83 76 83 82 75 74 70 66 62 54 43 42 42 43 47 46 43 45 49 48 52 52 50 51 47 46 43 38 34 30 40
57 55 58 69 65 69 78 73 78 78 79 90 92 66 48 65 81 84 78 74 69 62 53 52 51 47 45 50 49 48 50 47 51 51 50 53 51 49 48 43 37 33 29
53 53 56 63 65 65 79 83 63 78 89 85 116 60 39 37 61 71 91 86 79 75 68 62 60 54 53 48 46 47 51 50 50 51 49 49 47 51 51 49 44 40 36
51 49 51 58 69 62 65 68 67 76 80 106 93 93 55 43 44 35 66 93 84 84 77 71 69 63 57 53 49 48 49 51 52 51 52 51 49 48 52 51 50 47 43
46 46 48 52 56 59 67 67 65 64 64 97 92 64 89 73 56 48 39 72 93 91 85 78 72 69 62 59 56 53 49 49 51 50 53 54 54 51 52 51 50 49 48
59 46 41 44 51 47 59 65 68 64 68 72 100 79 105 84 75 64 49 54 98 95 93 88 84 76 74 69 65 57 51 52 53 54 53 54 55 56 55 56 59 58 55
63 52 43 43 45 38 53 55 63 68 59 69 91 85 74 94 84 79 64 41 48 59 79 95 90 81 77 74 70 62 57 53 55 56 57 57 57 56 57 59 60 61 61
56 52 47 46 41 35 49 58 54 59 61 68 89 75 85 70 89 90 86 66 40 47 67 79 89 86 82 81 75 66 62 57 55 56 56 58 59 59 60 58 62 64 64
46 44 43 32 22 31 47 53 51 40 55 43 68 86 90 82 62 82 98 86 72 42 54 66 63 71 83 83 78 71 67 63 59 56 58 59 58 59 58 60 60 61 65
40 34 28 20 15 28 42 50 48 43 42 40 48 86 95 64 76 72 89 90 90 75 58 69 70 53 47 50 59 64 68 64 60 59 59 63 66 63 61 60 60 62 64
47 36 27 14 9 8 28 42 47 47 40 44 61 80 86 100 85 56 90 83 89 86 70 59 54 56 54 53 52 52 56 66 67 62 59 66 72 73 68 65 62 61 63
64 56 45 27 26 6 6 6 19 36 39 47 51 62 66 68 68 71 68 73 73 82 82 76 70 64 60 57 57 58 60 60 63 62 57 59 63 76 75 68 67 66 65
81 75 80 70 52 36 25 26 24 22 22 27 40 41 53 62 67 54 36 53 60 67 73 75 65 66 61 60 59 59 60 60 60 55 50 51 48 50 55 57 58 62 69
93 93 86 93 86 78 65 55 53 52 56 57 51 26 20 23 30 39 59 46 54 61 64 62 60 55 50 52 58 56 56 65 69 71 58 57 57 56 63 62 61 63 64
84 90 88 86 93 96 87 81 74 76 78 74 71 71 61 55 34 17 19 22 45 57 65 62 38 48 44 43 47 46 56 63 62 64 62 61 60 63 61 57 58 58 66
70 74 85 87 86 87 80 74 73 79 77 76 71 77 73 68 60 53 48 40 32 23 16 16 31 22 20 25 13 14 31 42 53 51 51 59 62 58 59 61 58 60 60
79 81 82 88 89 85 76 69 69 68 72 73 76 72 83 67 61 53 47 40 37 33 38 35 32 27 17 15 4 6 11 13 23 38 35 37 38 40 44 51 55 56 59
78 78 79 79 79 79 74 74 72 74 72 72 71 71 69 66 61 49 46 41 37 32 30 28 27 28 25 20 17 11 18 16 18 24 28 32 33 33 37 40 49 54 56
73 79 78 78 77 76 75 73 72 72 72 70 70 71 69 64 52 41 35 39 34 36 33 28 25 21 18 14 13 12 12 17 9 20 22 27 33 40 36 37 40 49 54
65 69 74 77 78 80 80 78 75 72 71 71 67 66 66 59 56 51 47 41 37 38 26 20 15 14 15 18 17 17 17 15 17 10 13 21 17 23 14 25 28 30 35
Wind_Direction_850mb
279 276 267 261 265 254 247 244 240 237 237 238 237 235 234 234 230 227 225 225 228 229 221 217 216 217 215 214 213 208 202 196 208 205 204 206 208 211 216 221 224 221 217
272 268 266 263 252 264 252 246 243 239 238 237 238 236 234 234 231 229 225 222 224 224 221 220 221 221 217 218 217 213 210 215 202 210 209 210 213 216 219 223 222 212 217
267 263 259 258 256 250 263 250 246 240 236 236 236 237 235 234 232 228 224 219 220 218 220 222 223 220 218 219 219 220 221 209 206 213 213 214 216 220 223 228 215 208 214
271 260 256 252 251 249 248 254 249 243 237 233 233 234 234 233 232 228 224 220 218 218 219 222 223 220 217 217 217 219 219 207 213 215 217 215 220 223 223 227 233 219 212
277 265 255 248 246 243 244 251 249 239 236 235 232 234 233 232 231 228 224 220 219 220 224 225 224 223 219 216 219 217 213 211 217 220 221 221 221 228 227 230 236 234 229
284 267 257 249 243 241 238 245 244 240 234 238 232 233 234 231 230 227 223 221 216 216 222 223 223 222 220 218 221 217 216 217 218 222 226 228 230 232 228 228 233 241 236
286 273 259 255 246 242 235 235 241 242 235 226 230 228 232 231 229 225 222 222 219 215 224 230 228 224 221 218 220 218 218 223 223 224 229 232 233 234 231 228 231 238 236
292 279 263 255 247 245 238 230 236 235 241 230 220 219 219 225 227 224 222 224 224 220 217 230 233 231 223 221 219 219 220 225 225 229 234 236 236 235 233 233 237 238 237
307 289 273 253 248 245 240 230 245 231 245 230 218 208 208 217 221 226 222 225 225 227 224 221 230 233 226 225 223 223 225 227 225 228 232 237 236 235 235 237 238 239 239
315 309 289 271 251 240 239 233 231 239 247 231 241 213 217 214 206 209 220 224 222 227 228 226 225 229 226 225 226 229 229 229 229 230 231 234 238 238 235 237 240 241 240
315 308 299 288 268 258 236 228 227 237 239 224 221 231 222 218 213 217 215 214 221 225 225 227 226 227 228 228 231 233 233 232 232 232 234 234 235 236 235 234 238 240 242
317 312 296 286 282 267 231 220 230 228 233 227 218 227 222 218 216 212 216 213 218 221 223 226 227 228 230 233 234 236 236 236 236 236 235 234 234 237 236 234 235 238 241
319 314 299 280 271 268 221 216 230 230 225 231 229 223 236 231 227 219 218 208 212 212 225 228 229 230 233 233 236 237 237 235 236 237 239 239 238 239 240 239 237 240 239
324 316 309 299 263 247 229 218 228 231 232 235 233 246 217 230 235 227 218 217 209 210 222 229 232 232 233 236 236 236 240 236 233 234 235 238 239 239 238 240 238 239 242
338 328 315 298 275 236 228 220 227 229 228 245 239 233 228 238 234 235 234 226 219 207 217 227 233 235 236 238 237 237 236 236 234 236 236 236 238 239 238 237 237 237 242
360 343 327 307 261 247 238 222 215 217 233 234 240 231 229 236 232 243 244 234 229 226 226 238 233 233 231 231 232 234 235 235 234 238 240 240 238 239 240 241 241 240 238
32 26 15 359 8 268 252 238 225 226 240 235 231 230 237 231 241 258 231 239 237 232 229 236 231 229 235 239 238 237 242 244 241 236 241 244 242 239 238 240 242 243 243
47 51 47 44 54 42 58 211 214 226 229 228 231 233 232 226 227 235 247 248 242 240 235 233 234 231 233 239 250 252 253 244 237 234 247 256 248 240 239 238 243 244 248
47 54 60 59 62 72 82 93 118 143 167 208 220 212 219 220 221 234 224 221 240 242 237 236 238 241 243 249 248 248 248 239 233 246 256 247 241 232 230 234 240 243 247
61 55 51 62 66 73 79 87 99 102 101 97 97 142 178 177 184 197 222 229 238 237 243 235 232 242 241 236 237 237 233 235 244 249 251 245 239 239 242 247 248 246 248
54 61 59 53 64 67 68 75 80 84 86 82 81 84 91 92 106 144 183 190 225 251 243 234 229 225 217 215 219 233 231 233 244 249 247 242 241 236 240 247 251 251 252
60 57 60 60 54 58 64 66 69 70 68 69 65 75 80 78 75 73 76 86 103 89 164 188 196 163 189 231 233 242 240 235 243 241 237 234 235 240 247 249 252 249 255
50 56 57 56 58 59 56 56 60 62 64 63 58 54 64 65 67 72 72 67 68 68 72 71 73 76 77 83 209 275 293 237 245 251 273 244 241 239 244 252 259 265 265
51 51 54 57 59 58 57 59 61 61 61 57 56 49 50 50 51 56 61 66 70 72 65 51 48 42 36 31 22 328 332 325 302 288 289 284 269 262 266 265 267 265 265
48 49 50 52 52 51 50 49 50 52 54 53 50 50 49 46 46 50 56 60 58 60 52 49 42 34 21 15 354 334 333 349 333 282 281 280 283 285 281 273 268 265 263
51 51 50 49 49 46 43 43 44 48 48 47 45 43 42 36 34 37 41 48 50 56 56 59 44 26 15 1 346 350 9 4 345 315 298 332 316 310 291 267 260 265 271